Regional Weather Roundup
Issued by NWS Upton, NY

Current Version | Previous Version | Text Only | Print | Product List | Glossary On
Versions: 1 2 3 4 5 6 7 8 9 10 11 12 13 14 15 16 17 18 19 20 21 22 23 24 25 26 27 28
000 ASUS41 KOKX 231708 RWROKX REGIONAL WEATHER ROUNDUP NATIONAL WEATHER SERVICE NEW YORK NY 1200 PM EST THU NOV 23 2017 NOTE: "FAIR" INDICATES FEW OR NO CLOUDS BELOW 12,000 FEET WITH NO SIGNIFICANT WEATHER AND/OR OBSTRUCTIONS TO VISIBILITY. NYZ071-072-176-178-NJZ106-104-231800- NEW YORK CITY METRO AREA CITY SKY/WX TMP DP RH WIND PRES REMARKS Central Park SUNNY 39 19 44 VRB6 30.09F WCI 35 Bronx Bot Gard N/A 39 19 45 W5 30.07F Bronx Lehman C N/A 37 32 81 NW5 N/A WCI 34 LaGuardia APRT MOSUNNY 40 20 44 N8 30.07F WCI 34 Queens College N/A 37 32 81 NW5 N/A WCI 34 Kennedy INTL MOSUNNY 39 20 46 VRB3 30.08F Breezy Point NOT AVBL Brooklyn Coll N/A 37 32 81 NW6 N/A WCI 33 Staten Island N/A 37 32 81 W8 N/A WCI 31 Newark/Liberty MOSUNNY 42 19 39 N5 30.08F Teterboro SUNNY 40 19 43 CALM 30.06F $$ NYZ177-179-078>081-231800- LONG ISLAND NEW YORK CITY SKY/WX TMP DP RH WIND PRES REMARKS Jones Beach NOT AVBL Wantagh N/A 39 32 75 NW8 N/A WCI 34 Matinecock PT NOT AVBL Farmingdale SUNNY 39 21 48 W9 30.06F WCI 33 MacArthur/ISP MOSUNNY 39 21 48 N6 30.05F WCI 35 Shirley SUNNY 40 23 50 VRB7 30.05F Mt Sinai Harb NOT AVBL Westhampton SUNNY 39 22 50 MISG 30.06F East Hampton FAIR 38 24 56 NW8 30.04F WCI 32 Southold N/A 37 32 81 NW7 N/A WCI 32 Montauk N/A 40 24 53 NW9 30.05F WCI 34 $$ NYZ052-065-067-231800- HUDSON VALLEY CITY SKY/WX TMP DP RH WIND PRES REMARKS White Plains SUNNY 38 19 46 NW8 30.03F WCI 32 Larchmont Harb NOT AVBL Croton On Huds NOT AVBL Somers N/A 36 32 87 NW5 N/A WCI 32 Brewster N/A 36 32 87 NW8 N/A WCI 29 Newburgh SUNNY 37 19 48 NW8 30.06F WCI 31 Montgomery SUNNY 40 18 41 NW7 30.04F Suffern N/A 36 32 87 NW7 N/A WCI 30 Poughkeepsie SUNNY 39 19 44 N6 30.06F WCI 35 Albany PTSUNNY 35 17 47 VRB3G17 30.08F $$ NJZ001-105-106-008-010-013-015-019>022-104-231800- NEW JERSEY CITY SKY/WX TMP DP RH WIND PRES REMARKS Newark/Liberty MOSUNNY 42 19 39 N5 30.08F Teterboro SUNNY 40 19 43 CALM 30.06F Caldwell SUNNY 39 18 42 W7 30.07F WCI 34 Somerville SUNNY 40 20 44 MISG 30.07F Linden FAIR 40 18 41 NW5 30.08F Perth Amboy NOT AVBL Sussex SUNNY 39 20 46 N6 30.06F WCI 35 Andover N/A 38 19 46 N8 30.06F WCI 32 Trenton SUNNY 38 20 48 VRB7 30.09F WCI 33 Millville CLOUDY 38 22 52 NW9 30.11F WCI 31 Atlantic City CLOUDY 38 21 50 N6 30.10F WCI 33 Wrightstown SUNNY 38 21 50 NW8 30.07F WCI 32 Toms River MOSUNNY 38 21 50 W9 30.10F WCI 31 Belmar SUNNY 39 21 48 W8 30.09F WCI 33 $$ PAZ047>061-062-071-231800- EASTERN PENNSYLVANIA CITY SKY/WX TMP DP RH WIND PRES REMARKS Philadelphia MOSUNNY 39 17 41 NW8 30.11F WCI 33 Allentown SUNNY 38 20 48 NW12G18 30.09F WCI 30 Scranton SUNNY 34 19 54 VRB3 30.08F $$ CTZ002-004>006-009-010-012-RIZ004-006-007-MAZ004-011-015-231800- SOUTHERN NEW ENGLAND IN CT CITY SKY/WX TMP DP RH WIND PRES REMARKS Bradley INTL MOSUNNY 40 18 41 W8 30.03F WCI 34 Hartford SUNNY 40 19 43 VRB6 30.04F Danbury SUNNY 39 18 42 NW10 30.05F WCI 32 Wtrbury/Oxford SUNNY 36 18 48 NW9 30.02F WCI 29 Norwalk Harbor NOT AVBL Bridgeport SUNNY 41 18 39 NW7 30.05F Meriden SUNNY 39 18 42 N8 30.03F WCI 33 New Haven SUNNY 41 18 39 VRB6 30.04F Chester FAIR 39 18 41 VRB6 30.02F WCI 35 Groton SUNNY 41 21 44 NW12 30.02F Wilimantic SUNNY 40 20 44 NW9 30.04F WCI 34 IN RI CITY SKY/WX TMP DP RH WIND PRES REMARKS Providence MOSUNNY 41 21 44 W8 30.02F Block Island SUNNY 39 26 59 W8G16 30.03F WCI 33 Westerly SUNNY 42 23 46 NW5 30.03F IN MA CITY SKY/WX TMP DP RH WIND PRES REMARKS Boston MOSUNNY 40 18 41 W13 30.00F WCI 32 Worcester SUNNY 35 13 40 W13 29.97F WCI 26 Westfield SUNNY 40 17 39 NW8 30.02F WCI 34 Provincetown SUNNY 39 23 52 W10 30.01S WCI 32 Nantucket CLOUDY 40 27 59 N12 30.01F WCI 33 $$ ANZ330-335-338-340-345-350-353-355-231800- COASTAL MARINE OBSERVATIONS STATION/POSITION TIME SKY/WX TEMP WIND PRES VSBY WAVE AIR SEA DIR/SP/G HT/PER (UTC) (F) (DEG/KT/KT) (MB) (MI) (FT/S) NY HARB ENTRANCE 1550 37 55 310/ 6/ 10 1018.7 4/10 20 S FIRE ISLAND 1650 38 56 320/ 8/ 10 1018.2 4/11 GREAT SOUTH BAY 1630 37 45 330/ 6/ 10 N/A HUDSON CANYON 1550 42 58 300/ 8/ 12 1018.3 6/10 KINGS POINT 1648 37 50 360/ 8/ 10 1019.0 EXECUTION ROCKS 1630 41 320/ 8/ 14 N/A WESTERN LI SOUND 1549 37 320/ 6/ 10 N/A 0 CENTRAL LI SOUND NOT AVBL ROBBINS REEF 1648 37 340/ 5/ 11 1019.0 $$ >>>>>>>>>>>>>>>>>>>>>>>>>>>> KEY <<<<<<<<<<<<<<<<<<<<<<<<<<< > < > SKY/WX - Sky Condition/Present Weather < > TMP - Temperature in Fahrenheit < > DP - Dew Point in Fahrenheit < > RH - Relative Humidity in Percent < > WIND - Direction (from) and Speed in MPH < > PRES - Mean Sea Level Pressure (inches of Hg) < > WCI - Wind Chill Index < > VSB - VISIBILITY IN MILES < > HX - HEAT INDEX < > TC - TEMPERATURE IN CELSIUS < > VRB - VARIABLE WIND DIRECTION < > < >>>>>>>>>>>>>>>>>>>>>>>>>>>> KEY <<<<<<<<<<<<<<<<<<<<<<<<<<<

USA.gov is the U.S. government's official web portal to all federal, state and local government web resources and services.